Location: Betra
(48.4113°N, 8.6634°E)
Time: 19:40:45
(UTC+00:00)

Cosmos 1954 Rocket - Pass Details

Date: 23 May 2024
Orbit: 750 x 779 km, 74.0° (Epoch: 16 June)

Event Time Altitude Azimuth Distance (km) Brightness Sun altitude
Exits shadow 00:48:43 32° 218° (SW) 1,306 4.7 -18.3°
Maximum altitude 00:51:10 71° 295° (WNW) 826 4.1 -18.1°
Drops below altitude 10° 00:56:30 10° 19° (NNE) 2,340 7.8 -17.8°
Sets 00:58:54 0° 22° (NNE) 3,269 9.0 -17.6°
